iso_date,epoch_date,Year,Hour,Min,DOY,POS_DOY,Lat,Lon,BP,Ts,Ta,has_bp,has_ts,has_ta,BuoyID,Buoy_Type,Buoy_Owner,Logistics,Hemisphere
2017-09-23T20:22:33Z,1506198154,2017,20,22,266.849,266.849,73.4008,-129.3532,1021.5,8.19,-999.0,yes,yes,no,300234063801050,BD2GI,AOML,UNKNOWN,North
2017-09-23T21:00:00Z,1506200400,2017,21,0,266.875,266.875,73.4016,-129.3556,1021.3,7.3,-999.0,yes,yes,no,300234063801050,BD2GI,AOML,UNKNOWN,North
2017-09-23T22:00:28Z,1506204029,2017,22,0,266.917,266.917,73.4012,-129.3542,1021.0,5.94,-999.0,yes,yes,no,300234063801050,BD2GI,AOML,UNKNOWN,North
2017-09-23T22:59:31Z,1506207571,2017,23,0,266.958,266.958,73.403,-129.3438,1020.8,4.68,-999.0,yes,yes,no,300234063801050,BD2GI,AOML,UNKNOWN,North
2017-09-24T00:00:00Z,1506211200,2017,0,0,267.0,267.0,73.4014,-129.3538,1020.5,3.11,-999.0,yes,yes,no,300234063801050,BD2GI,AOML,UNKNOWN,North
2017-09-24T01:00:28Z,1506214829,2017,1,0,267.042,267.042,73.405,-129.3792,1020.5,1.79,-999.0,yes,yes,no,300234063801050,BD2GI,AOML,UNKNOWN,North
2017-09-24T01:59:31Z,1506218371,2017,2,0,267.083,267.083,73.3668,-129.3208,1020.1,0.57,-999.0,yes,yes,no,300234063801050,BD2GI,AOML,UNKNOWN,North
2017-09-24T03:00:00Z,1506222000,2017,3,0,267.125,267.125,73.2048,-129.0808,1020.0,-0.85,-999.0,yes,yes,no,300234063801050,BD2GI,AOML,UNKNOWN,North
2017-09-24T04:00:28Z,1506225629,2017,4,0,267.167,267.167,73.047,-128.805,1019.2,-0.54,-999.0,yes,yes,no,300234063801050,BD2GI,AOML,UNKNOWN,North
2017-09-24T04:59:31Z,1506229171,2017,5,0,267.208,267.208,72.8824,-128.5782,1018.5,0.13,-999.0,yes,yes,no,300234063801050,BD2GI,AOML,UNKNOWN,North
2017-09-24T06:00:00Z,1506232800,2017,6,0,267.25,267.25,72.7196,-128.3804,1017.6,1.87,-999.0,yes,yes,no,300234063801050,BD2GI,AOML,UNKNOWN,North
2017-09-24T07:00:28Z,1506236429,2017,7,0,267.292,267.292,72.5602,-128.1764,1017.1,1.9,-999.0,yes,yes,no,300234063801050,BD2GI,AOML,UNKNOWN,North
2017-09-24T07:59:31Z,1506239971,2017,8,0,267.333,267.333,72.422,-127.8724,1016.6,1.31,-999.0,yes,yes,no,300234063801050,BD2GI,AOML,UNKNOWN,North
2017-09-24T09:00:00Z,1506243600,2017,9,0,267.375,267.375,72.2704,-127.6534,1015.8,1.89,-999.0,yes,yes,no,300234063801050,BD2GI,AOML,UNKNOWN,North
2017-09-24T10:00:28Z,1506247229,2017,10,0,267.417,267.417,72.2602,-127.6258,1015.9,-0.3,-999.0,yes,yes,no,300234063801050,BD2GI,AOML,UNKNOWN,North
2017-09-24T10:59:31Z,1506250771,2017,11,0,267.458,267.458,72.2608,-127.6146,1015.4,-0.29,-999.0,yes,yes,no,300234063801050,BD2GI,AOML,UNKNOWN,North
2017-09-24T12:00:00Z,1506254400,2017,12,0,267.5,267.5,72.2592,-127.602,1014.8,-0.31,-999.0,yes,yes,no,300234063801050,BD2GI,AOML,UNKNOWN,North
2017-09-24T13:00:28Z,1506258029,2017,13,0,267.542,267.542,72.2556,-127.5882,1014.3,-0.27,-999.0,yes,yes,no,300234063801050,BD2GI,AOML,UNKNOWN,North
2017-09-24T13:59:31Z,1506261571,2017,14,0,267.583,267.583,72.2508,-127.5784,1013.9,-0.11,-999.0,yes,yes,no,300234063801050,BD2GI,AOML,UNKNOWN,North
2017-09-24T15:00:00Z,1506265200,2017,15,0,267.625,267.625,72.2456,-127.5718,1013.3,-0.1,-999.0,yes,yes,no,300234063801050,BD2GI,AOML,UNKNOWN,North
2017-09-24T16:00:28Z,1506268829,2017,16,0,267.667,267.667,72.2412,-127.5718,1013.0,-0.22,-999.0,yes,yes,no,300234063801050,BD2GI,AOML,UNKNOWN,North
2017-09-24T16:59:31Z,1506272371,2017,17,0,267.708,267.708,72.2386,-127.5766,1012.7,-0.23,-999.0,yes,yes,no,300234063801050,BD2GI,AOML,UNKNOWN,North
2017-09-24T18:00:00Z,1506276000,2017,18,0,267.75,267.75,72.2382,-127.5824,1012.3,-0.23,-999.0,yes,yes,no,300234063801050,BD2GI,AOML,UNKNOWN,North
2017-09-24T19:00:28Z,1506279629,2017,19,0,267.792,267.792,72.2398,-127.5868,1012.0,-0.11,-999.0,yes,yes,no,300234063801050,BD2GI,AOML,UNKNOWN,North
2017-09-24T19:59:31Z,1506283171,2017,20,0,267.833,267.833,72.2432,-127.5906,1011.7,-0.19,-999.0,yes,yes,no,300234063801050,BD2GI,AOML,UNKNOWN,North
2017-09-24T21:00:00Z,1506286800,2017,21,0,267.875,267.875,72.247,-127.5912,1011.2,-0.02,-999.0,yes,yes,no,300234063801050,BD2GI,AOML,UNKNOWN,North
2017-09-24T22:00:28Z,1506290429,2017,22,0,267.917,267.917,72.2502,-127.5872,1010.7,0.01,-999.0,yes,yes,no,300234063801050,BD2GI,AOML,UNKNOWN,North
2017-09-24T22:59:31Z,1506293971,2017,23,0,267.958,267.958,72.2524,-127.5778,1010.1,-0.01,-999.0,yes,yes,no,300234063801050,BD2GI,AOML,UNKNOWN,North
2017-09-25T00:00:00Z,1506297600,2017,0,0,268.0,268.0,72.2524,-127.568,1009.3,-0.01,-999.0,yes,yes,no,300234063801050,BD2GI,AOML,UNKNOWN,North
2017-09-25T01:00:28Z,1506301229,2017,1,0,268.042,268.042,72.2508,-127.5586,1008.6,-0.02,-999.0,yes,yes,no,300234063801050,BD2GI,AOML,UNKNOWN,North
2017-09-25T01:59:31Z,1506304771,2017,2,0,268.083,268.083,72.2476,-127.5512,1007.9,-0.07,-999.0,yes,yes,no,300234063801050,BD2GI,AOML,UNKNOWN,North
2017-09-25T03:00:00Z,1506308400,2017,3,0,268.125,268.125,72.2442,-127.549,1007.4,-0.07,-999.0,yes,yes,no,300234063801050,BD2GI,AOML,UNKNOWN,North
2017-09-25T04:00:28Z,1506312029,2017,4,0,268.167,268.167,72.2408,-127.5506,1006.6,-0.07,-999.0,yes,yes,no,300234063801050,BD2GI,AOML,UNKNOWN,North
2017-09-25T04:59:31Z,1506315571,2017,5,0,268.208,268.208,72.2384,-127.558,1006.0,-0.09,-999.0,yes,yes,no,300234063801050,BD2GI,AOML,UNKNOWN,North
2017-09-25T06:00:00Z,1506319200,2017,6,0,268.25,268.25,72.2386,-127.5682,1005.3,-0.03,-999.0,yes,yes,no,300234063801050,BD2GI,AOML,UNKNOWN,North
2017-09-25T07:00:28Z,1506322829,2017,7,0,268.292,268.292,72.2408,-127.578,1004.5,-0.11,-999.0,yes,yes,no,300234063801050,BD2GI,AOML,UNKNOWN,North
2017-09-25T07:59:31Z,1506326371,2017,8,0,268.333,268.333,72.2454,-127.5846,1003.9,-0.02,-999.0,yes,yes,no,300234063801050,BD2GI,AOML,UNKNOWN,North
2017-09-25T09:00:00Z,1506330000,2017,9,0,268.375,268.375,72.2504,-127.5856,1003.4,-0.03,-999.0,yes,yes,no,300234063801050,BD2GI,AOML,UNKNOWN,North
2017-09-25T10:00:28Z,1506333629,2017,10,0,268.417,268.417,72.2548,-127.5818,1002.9,-0.16,-999.0,yes,yes,no,300234063801050,BD2GI,AOML,UNKNOWN,North
2017-09-25T10:59:31Z,1506337171,2017,11,0,268.458,268.458,72.2584,-127.573,1002.5,-0.09,-999.0,yes,yes,no,300234063801050,BD2GI,AOML,UNKNOWN,North
2017-09-25T12:00:00Z,1506340800,2017,12,0,268.5,268.5,72.2602,-127.563,1002.1,-0.17,-999.0,yes,yes,no,300234063801050,BD2GI,AOML,UNKNOWN,North
2017-09-25T13:00:28Z,1506344429,2017,13,0,268.542,268.542,72.2598,-127.5516,1001.6,-0.12,-999.0,yes,yes,no,300234063801050,BD2GI,AOML,UNKNOWN,North
2017-09-25T13:59:31Z,1506347971,2017,14,0,268.583,268.583,72.2574,-127.5422,1001.3,-0.07,-999.0,yes,yes,no,300234063801050,BD2GI,AOML,UNKNOWN,North
2017-09-25T15:00:00Z,1506351600,2017,15,0,268.625,268.625,72.2538,-127.5404,1001.2,-0.14,-999.0,yes,yes,no,300234063801050,BD2GI,AOML,UNKNOWN,North
2017-09-25T16:00:28Z,1506355229,2017,16,0,268.667,268.667,72.2508,-127.5458,1001.1,-0.22,-999.0,yes,yes,no,300234063801050,BD2GI,AOML,UNKNOWN,North
2017-09-25T16:59:31Z,1506358771,2017,17,0,268.708,268.708,72.2494,-127.5566,1001.3,-0.11,-999.0,yes,yes,no,300234063801050,BD2GI,AOML,UNKNOWN,North
2017-09-25T18:00:00Z,1506362400,2017,18,0,268.75,268.75,72.2496,-127.5712,1001.3,-0.14,-999.0,yes,yes,no,300234063801050,BD2GI,AOML,UNKNOWN,North
2017-09-25T19:00:28Z,1506366029,2017,19,0,268.792,268.792,72.2524,-127.587,1001.8,-0.13,-999.0,yes,yes,no,300234063801050,BD2GI,AOML,UNKNOWN,North
2017-09-25T19:59:31Z,1506369571,2017,20,0,268.833,268.833,72.2576,-127.5984,1002.3,-0.11,-999.0,yes,yes,no,300234063801050,BD2GI,AOML,UNKNOWN,North
2017-09-25T21:00:00Z,1506373200,2017,21,0,268.875,268.875,72.2634,-127.603,1002.8,-0.11,-999.0,yes,yes,no,300234063801050,BD2GI,AOML,UNKNOWN,North
2017-09-25T22:00:28Z,1506376829,2017,22,0,268.917,268.917,72.269,-127.6002,1003.7,-0.04,-999.0,yes,yes,no,300234063801050,BD2GI,AOML,UNKNOWN,North
2017-09-25T22:59:31Z,1506380371,2017,23,0,268.958,268.958,72.2726,-127.5914,1004.3,-0.09,-999.0,yes,yes,no,300234063801050,BD2GI,AOML,UNKNOWN,North
2017-09-26T00:00:00Z,1506384000,2017,0,0,269.0,269.0,72.2736,-127.581,1005.0,-0.04,-999.0,yes,yes,no,300234063801050,BD2GI,AOML,UNKNOWN,North
2017-09-26T01:00:28Z,1506387629,2017,1,0,269.042,269.042,72.272,-127.5708,1005.6,-0.07,-999.0,yes,yes,no,300234063801050,BD2GI,AOML,UNKNOWN,North
2017-09-26T01:59:31Z,1506391171,2017,2,0,269.083,269.083,72.268,-127.5642,1006.2,-0.1,-999.0,yes,yes,no,300234063801050,BD2GI,AOML,UNKNOWN,North
2017-09-26T03:00:00Z,1506394800,2017,3,0,269.125,269.125,72.2632,-127.565,1006.8,-0.08,-999.0,yes,yes,no,300234063801050,BD2GI,AOML,UNKNOWN,North
2017-09-26T04:00:28Z,1506398429,2017,4,0,269.167,269.167,72.2588,-127.574,1007.5,-0.13,-999.0,yes,yes,no,300234063801050,BD2GI,AOML,UNKNOWN,North
2017-09-26T04:59:31Z,1506401971,2017,5,0,269.208,269.208,72.256,-127.589,1008.4,-0.15,-999.0,yes,yes,no,300234063801050,BD2GI,AOML,UNKNOWN,North
2017-09-26T06:00:00Z,1506405600,2017,6,0,269.25,269.25,72.2554,-127.6074,1009.0,-0.16,-999.0,yes,yes,no,300234063801050,BD2GI,AOML,UNKNOWN,North
2017-09-26T07:00:28Z,1506409229,2017,7,0,269.292,269.292,72.2578,-127.625,1009.4,-0.17,-999.0,yes,yes,no,300234063801050,BD2GI,AOML,UNKNOWN,North
2017-09-26T07:59:31Z,1506412771,2017,8,0,269.333,269.333,72.2622,-127.6382,1010.0,-0.15,-999.0,yes,yes,no,300234063801050,BD2GI,AOML,UNKNOWN,North
2017-09-26T09:00:00Z,1506416400,2017,9,0,269.375,269.375,72.2684,-127.6448,1010.7,-0.19,-999.0,yes,yes,no,300234063801050,BD2GI,AOML,UNKNOWN,North
2017-09-26T10:00:28Z,1506420029,2017,10,0,269.417,269.417,72.2742,-127.644,1011.4,-0.17,-999.0,yes,yes,no,300234063801050,BD2GI,AOML,UNKNOWN,North
2017-09-26T10:59:31Z,1506423571,2017,11,0,269.458,269.458,72.2786,-127.6348,1011.7,-0.13,-999.0,yes,yes,no,300234063801050,BD2GI,AOML,UNKNOWN,North
2017-09-26T12:00:00Z,1506427200,2017,12,0,269.5,269.5,72.28,-127.6216,1012.1,-0.19,-999.0,yes,yes,no,300234063801050,BD2GI,AOML,UNKNOWN,North
2017-09-26T13:00:28Z,1506430829,2017,13,0,269.542,269.542,72.279,-127.6084,1012.4,-0.31,-999.0,yes,yes,no,300234063801050,BD2GI,AOML,UNKNOWN,North
2017-09-26T13:59:31Z,1506434371,2017,14,0,269.583,269.583,72.276,-127.5974,1012.6,-0.2,-999.0,yes,yes,no,300234063801050,BD2GI,AOML,UNKNOWN,North
2017-09-26T15:00:00Z,1506438000,2017,15,0,269.625,269.625,72.2714,-127.5946,1013.1,-0.2,-999.0,yes,yes,no,300234063801050,BD2GI,AOML,UNKNOWN,North
2017-09-26T16:00:28Z,1506441629,2017,16,0,269.667,269.667,72.2664,-127.6,1013.5,-0.17,-999.0,yes,yes,no,300234063801050,BD2GI,AOML,UNKNOWN,North
2017-09-26T16:59:31Z,1506445171,2017,17,0,269.708,269.708,72.2624,-127.6122,1013.8,-0.15,-999.0,yes,yes,no,300234063801050,BD2GI,AOML,UNKNOWN,North
2017-09-26T18:00:00Z,1506448800,2017,18,0,269.75,269.75,72.2612,-127.627,1013.9,-0.19,-999.0,yes,yes,no,300234063801050,BD2GI,AOML,UNKNOWN,North
2017-09-26T19:00:28Z,1506452429,2017,19,0,269.792,269.792,72.2628,-127.639,1014.2,-0.15,-999.0,yes,yes,no,300234063801050,BD2GI,AOML,UNKNOWN,North
2017-09-26T19:59:31Z,1506455971,2017,20,0,269.833,269.833,72.266,-127.6464,1014.5,-0.12,-999.0,yes,yes,no,300234063801050,BD2GI,AOML,UNKNOWN,North
2017-09-26T21:00:00Z,1506459600,2017,21,0,269.875,269.875,72.2704,-127.6482,1014.3,-0.21,-999.0,yes,yes,no,300234063801050,BD2GI,AOML,UNKNOWN,North
2017-09-26T22:00:28Z,1506463229,2017,22,0,269.917,269.917,72.275,-127.6438,1014.3,-0.19,-999.0,yes,yes,no,300234063801050,BD2GI,AOML,UNKNOWN,North
2017-09-26T22:59:31Z,1506466771,2017,23,0,269.958,269.958,72.2786,-127.634,1014.2,-0.17,-999.0,yes,yes,no,300234063801050,BD2GI,AOML,UNKNOWN,North
2017-09-27T00:00:00Z,1506470400,2017,0,0,270.0,270.0,72.2802,-127.6208,1013.8,-0.11,-999.0,yes,yes,no,300234063801050,BD2GI,AOML,UNKNOWN,North
2017-09-27T01:00:28Z,1506474029,2017,1,0,270.042,270.042,72.28,-127.6062,1013.1,-0.14,-999.0,yes,yes,no,300234063801050,BD2GI,AOML,UNKNOWN,North
2017-09-27T01:59:31Z,1506477571,2017,2,0,270.083,270.083,72.2774,-127.5932,1012.7,-0.2,-999.0,yes,yes,no,300234063801050,BD2GI,AOML,UNKNOWN,North
2017-09-27T03:00:00Z,1506481200,2017,3,0,270.125,270.125,72.2728,-127.5826,1012.9,-0.17,-999.0,yes,yes,no,300234063801050,BD2GI,AOML,UNKNOWN,North
2017-09-27T04:00:28Z,1506484829,2017,4,0,270.167,270.167,72.267,-127.5766,1013.6,-0.26,-999.0,yes,yes,no,300234063801050,BD2GI,AOML,UNKNOWN,North
2017-09-27T04:59:31Z,1506488371,2017,5,0,270.208,270.208,72.2598,-127.5758,1014.4,-0.29,-999.0,yes,yes,no,300234063801050,BD2GI,AOML,UNKNOWN,North
2017-09-27T06:00:00Z,1506492000,2017,6,0,270.25,270.25,72.2522,-127.5802,1015.2,-0.31,-999.0,yes,yes,no,300234063801050,BD2GI,AOML,UNKNOWN,North
2017-09-27T07:00:28Z,1506495629,2017,7,0,270.292,270.292,72.2456,-127.5916,1016.0,-0.32,-999.0,yes,yes,no,300234063801050,BD2GI,AOML,UNKNOWN,North
2017-09-27T07:59:31Z,1506499171,2017,8,0,270.333,270.333,72.2402,-127.6044,1016.9,-0.48,-999.0,yes,yes,no,300234063801050,BD2GI,AOML,UNKNOWN,North
2017-09-27T09:00:00Z,1506502800,2017,9,0,270.375,270.375,72.2374,-127.6198,1017.7,-0.46,-999.0,yes,yes,no,300234063801050,BD2GI,AOML,UNKNOWN,North
2017-09-27T10:00:28Z,1506506429,2017,10,0,270.417,270.417,72.2362,-127.6316,1018.5,-0.51,-999.0,yes,yes,no,300234063801050,BD2GI,AOML,UNKNOWN,North
2017-09-27T10:59:31Z,1506509971,2017,11,0,270.458,270.458,72.2362,-127.6402,1019.3,-0.43,-999.0,yes,yes,no,300234063801050,BD2GI,AOML,UNKNOWN,North
2017-09-27T12:00:00Z,1506513600,2017,12,0,270.5,270.5,72.2358,-127.6414,1019.8,-0.45,-999.0,yes,yes,no,300234063801050,BD2GI,AOML,UNKNOWN,North
2017-09-27T13:00:28Z,1506517229,2017,13,0,270.542,270.542,72.235,-127.637,1020.4,-0.55,-999.0,yes,yes,no,300234063801050,BD2GI,AOML,UNKNOWN,North
2017-09-27T13:59:31Z,1506520771,2017,14,0,270.583,270.583,72.2336,-127.6292,1020.9,-0.51,-999.0,yes,yes,no,300234063801050,BD2GI,AOML,UNKNOWN,North
2017-09-27T15:00:00Z,1506524400,2017,15,0,270.625,270.625,72.2312,-127.6194,1021.4,-0.5,-999.0,yes,yes,no,300234063801050,BD2GI,AOML,UNKNOWN,North
2017-09-27T16:00:28Z,1506528029,2017,16,0,270.667,270.667,72.228,-127.6092,1021.8,-0.58,-999.0,yes,yes,no,300234063801050,BD2GI,AOML,UNKNOWN,North
2017-09-27T16:59:31Z,1506531571,2017,17,0,270.708,270.708,72.2246,-127.6022,1022.4,-0.49,-999.0,yes,yes,no,300234063801050,BD2GI,AOML,UNKNOWN,North
2017-09-27T18:00:00Z,1506535200,2017,18,0,270.75,270.75,72.2214,-127.598,1022.9,-0.46,-999.0,yes,yes,no,300234063801050,BD2GI,AOML,UNKNOWN,North
2017-09-27T19:00:28Z,1506538829,2017,19,0,270.792,270.792,72.2196,-127.5982,1023.2,-0.48,-999.0,yes,yes,no,300234063801050,BD2GI,AOML,UNKNOWN,North
2017-09-27T19:59:31Z,1506542371,2017,20,0,270.833,270.833,72.219,-127.599,1023.4,-0.5,-999.0,yes,yes,no,300234063801050,BD2GI,AOML,UNKNOWN,North
2017-09-27T21:00:00Z,1506546000,2017,21,0,270.875,270.875,72.2202,-127.5974,1023.6,-0.54,-999.0,yes,yes,no,300234063801050,BD2GI,AOML,UNKNOWN,North
2017-09-27T22:00:28Z,1506549629,2017,22,0,270.917,270.917,72.2214,-127.5954,1023.4,-0.56,-999.0,yes,yes,no,300234063801050,BD2GI,AOML,UNKNOWN,North
2017-09-27T22:59:31Z,1506553171,2017,23,0,270.958,270.958,72.2228,-127.5932,1023.0,-0.49,-999.0,yes,yes,no,300234063801050,BD2GI,AOML,UNKNOWN,North
2017-09-28T00:00:00Z,1506556800,2017,0,0,271.0,271.0,72.2242,-127.5898,1022.6,-0.56,-999.0,yes,yes,no,300234063801050,BD2GI,AOML,UNKNOWN,North
2017-09-28T01:00:28Z,1506560429,2017,1,0,271.042,271.042,72.2252,-127.5844,1022.0,-0.51,-999.0,yes,yes,no,300234063801050,BD2GI,AOML,UNKNOWN,North
2017-09-28T01:59:31Z,1506563971,2017,2,0,271.083,271.083,72.2254,-127.5778,1021.6,-0.5,-999.0,yes,yes,no,300234063801050,BD2GI,AOML,UNKNOWN,North
2017-09-28T03:00:00Z,1506567600,2017,3,0,271.125,271.125,72.2248,-127.5692,1021.1,-0.64,-999.0,yes,yes,no,300234063801050,BD2GI,AOML,UNKNOWN,North
2017-09-28T04:00:28Z,1506571229,2017,4,0,271.167,271.167,72.223,-127.5606,1020.7,-0.5,-999.0,yes,yes,no,300234063801050,BD2GI,AOML,UNKNOWN,North
2017-09-28T04:59:31Z,1506574771,2017,5,0,271.208,271.208,72.2206,-127.552,1020.1,-0.57,-999.0,yes,yes,no,300234063801050,BD2GI,AOML,UNKNOWN,North
2017-09-28T06:00:00Z,1506578400,2017,6,0,271.25,271.25,72.2182,-127.5454,1019.6,-0.62,-999.0,yes,yes,no,300234063801050,BD2GI,AOML,UNKNOWN,North
2017-09-28T07:00:28Z,1506582029,2017,7,0,271.292,271.292,72.2164,-127.54,1018.7,-0.58,-999.0,yes,yes,no,300234063801050,BD2GI,AOML,UNKNOWN,North
2017-09-28T07:59:31Z,1506585571,2017,8,0,271.333,271.333,72.2148,-127.5334,1017.7,-0.54,-999.0,yes,yes,no,300234063801050,BD2GI,AOML,UNKNOWN,North
2017-09-28T09:00:00Z,1506589200,2017,9,0,271.375,271.375,72.2142,-127.5268,1016.8,-0.54,-999.0,yes,yes,no,300234063801050,BD2GI,AOML,UNKNOWN,North
2017-09-28T10:00:28Z,1506592829,2017,10,0,271.417,271.417,72.2138,-127.52,1015.8,-0.55,-999.0,yes,yes,no,300234063801050,BD2GI,AOML,UNKNOWN,North
2017-09-28T10:59:31Z,1506596371,2017,11,0,271.458,271.458,72.2132,-127.5138,1014.7,-0.51,-999.0,yes,yes,no,300234063801050,BD2GI,AOML,UNKNOWN,North
2017-09-28T12:00:00Z,1506600000,2017,12,0,271.5,271.5,72.2126,-127.5078,1013.5,-0.58,-999.0,yes,yes,no,300234063801050,BD2GI,AOML,UNKNOWN,North
2017-09-28T13:00:28Z,1506603629,2017,13,0,271.542,271.542,72.2124,-127.4998,1012.5,-0.54,-999.0,yes,yes,no,300234063801050,BD2GI,AOML,UNKNOWN,North
2017-09-28T13:59:31Z,1506607171,2017,14,0,271.583,271.583,72.212,-127.4886,1011.6,-0.61,-999.0,yes,yes,no,300234063801050,BD2GI,AOML,UNKNOWN,North
2017-09-28T15:00:00Z,1506610800,2017,15,0,271.625,271.625,72.2106,-127.4732,1010.7,-0.6,-999.0,yes,yes,no,300234063801050,BD2GI,AOML,UNKNOWN,North
2017-09-28T16:00:28Z,1506614429,2017,16,0,271.667,271.667,72.2088,-127.456,1009.8,-0.65,-999.0,yes,yes,no,300234063801050,BD2GI,AOML,UNKNOWN,North
2017-09-28T16:59:31Z,1506617971,2017,17,0,271.708,271.708,72.2068,-127.4406,1008.7,-0.63,-999.0,yes,yes,no,300234063801050,BD2GI,AOML,UNKNOWN,North
2017-09-28T18:00:00Z,1506621600,2017,18,0,271.75,271.75,72.2042,-127.4278,1008.1,-0.65,-999.0,yes,yes,no,300234063801050,BD2GI,AOML,UNKNOWN,North
2017-09-28T19:00:28Z,1506625229,2017,19,0,271.792,271.792,72.2042,-127.4278,1007.2,-0.58,-999.0,yes,yes,no,300234063801050,BD2GI,AOML,UNKNOWN,North
2017-09-28T19:59:31Z,1506628771,2017,20,0,271.833,271.833,72.2012,-127.4044,1006.4,-0.58,-999.0,yes,yes,no,300234063801050,BD2GI,AOML,UNKNOWN,North
2017-09-28T21:00:00Z,1506632400,2017,21,0,271.875,271.875,72.2002,-127.3938,1005.8,-0.6,-999.0,yes,yes,no,300234063801050,BD2GI,AOML,UNKNOWN,North
2017-09-28T22:00:28Z,1506636029,2017,22,0,271.917,271.917,72.1998,-127.3838,1005.1,-0.67,-999.0,yes,yes,no,300234063801050,BD2GI,AOML,UNKNOWN,North
2017-09-28T22:59:31Z,1506639571,2017,23,0,271.958,271.958,72.1986,-127.3754,1004.5,-0.58,-999.0,yes,yes,no,300234063801050,BD2GI,AOML,UNKNOWN,North
2017-09-29T00:00:00Z,1506643200,2017,0,0,272.0,272.0,72.1978,-127.3682,1003.7,-0.53,-999.0,yes,yes,no,300234063801050,BD2GI,AOML,UNKNOWN,North
2017-09-29T01:00:28Z,1506646829,2017,1,0,272.042,272.042,72.1968,-127.3604,1003.4,-0.58,-999.0,yes,yes,no,300234063801050,BD2GI,AOML,UNKNOWN,North
2017-09-29T01:59:31Z,1506650371,2017,2,0,272.083,272.083,72.1958,-127.353,1002.8,-0.6,-999.0,yes,yes,no,300234063801050,BD2GI,AOML,UNKNOWN,North
2017-09-29T03:00:00Z,1506654000,2017,3,0,272.125,272.125,72.1942,-127.3462,1002.4,-0.63,-999.0,yes,yes,no,300234063801050,BD2GI,AOML,UNKNOWN,North
2017-09-29T04:59:31Z,1506661171,2017,5,0,272.208,272.208,72.1908,-127.3312,1002.0,-0.54,-999.0,yes,yes,no,300234063801050,BD2GI,AOML,UNKNOWN,North
2017-09-29T06:00:00Z,1506664800,2017,6,0,272.25,272.25,72.1894,-127.3238,1002.0,-0.56,-999.0,yes,yes,no,300234063801050,BD2GI,AOML,UNKNOWN,North
2017-09-29T07:00:28Z,1506668429,2017,7,0,272.292,272.292,72.1886,-127.317,1001.7,-0.61,-999.0,yes,yes,no,300234063801050,BD2GI,AOML,UNKNOWN,North
2017-09-29T07:59:31Z,1506671971,2017,8,0,272.333,272.333,72.1884,-127.3094,1001.7,-0.54,-999.0,yes,yes,no,300234063801050,BD2GI,AOML,UNKNOWN,North
2017-09-29T09:00:00Z,1506675600,2017,9,0,272.375,272.375,72.1886,-127.3006,1001.6,-0.57,-999.0,yes,yes,no,300234063801050,BD2GI,AOML,UNKNOWN,North
2017-09-29T10:00:28Z,1506679229,2017,10,0,272.417,272.417,72.189,-127.2916,1001.7,-0.56,-999.0,yes,yes,no,300234063801050,BD2GI,AOML,UNKNOWN,North
2017-09-29T10:59:31Z,1506682771,2017,11,0,272.458,272.458,72.1888,-127.2824,1001.7,-0.59,-999.0,yes,yes,no,300234063801050,BD2GI,AOML,UNKNOWN,North
2017-09-29T12:00:00Z,1506686400,2017,12,0,272.5,272.5,72.1886,-127.2724,1001.9,-0.61,-999.0,yes,yes,no,300234063801050,BD2GI,AOML,UNKNOWN,North
2017-09-29T13:00:28Z,1506690029,2017,13,0,272.542,272.542,72.188,-127.2628,1001.9,-0.59,-999.0,yes,yes,no,300234063801050,BD2GI,AOML,UNKNOWN,North
2017-09-29T13:59:31Z,1506693571,2017,14,0,272.583,272.583,72.187,-127.2544,1002.1,-0.61,-999.0,yes,yes,no,300234063801050,BD2GI,AOML,UNKNOWN,North
2017-09-29T15:00:00Z,1506697200,2017,15,0,272.625,272.625,72.186,-127.2468,1002.5,-0.54,-999.0,yes,yes,no,300234063801050,BD2GI,AOML,UNKNOWN,North
2017-09-29T16:00:28Z,1506700829,2017,16,0,272.667,272.667,72.184,-127.2414,1002.9,-0.59,-999.0,yes,yes,no,300234063801050,BD2GI,AOML,UNKNOWN,North
2017-09-29T16:59:31Z,1506704371,2017,17,0,272.708,272.708,72.1824,-127.2358,1003.5,-0.63,-999.0,yes,yes,no,300234063801050,BD2GI,AOML,UNKNOWN,North
2017-09-29T18:00:00Z,1506708000,2017,18,0,272.75,272.75,72.1806,-127.231,1004.2,-0.61,-999.0,yes,yes,no,300234063801050,BD2GI,AOML,UNKNOWN,North
2017-09-29T19:00:28Z,1506711629,2017,19,0,272.792,272.792,72.1794,-127.2264,1005.0,-0.62,-999.0,yes,yes,no,300234063801050,BD2GI,AOML,UNKNOWN,North
2017-09-29T19:59:31Z,1506715171,2017,20,0,272.833,272.833,72.179,-127.2196,1005.8,-0.59,-999.0,yes,yes,no,300234063801050,BD2GI,AOML,UNKNOWN,North
2017-09-29T21:00:00Z,1506718800,2017,21,0,272.875,272.875,72.178,-127.2124,1006.9,-0.67,-999.0,yes,yes,no,300234063801050,BD2GI,AOML,UNKNOWN,North
2017-09-29T22:00:28Z,1506722429,2017,22,0,272.917,272.917,72.1766,-127.2062,1007.8,-0.52,-999.0,yes,yes,no,300234063801050,BD2GI,AOML,UNKNOWN,North
2017-09-29T22:59:31Z,1506725971,2017,23,0,272.958,272.958,72.1748,-127.2018,1008.9,-0.5,-999.0,yes,yes,no,300234063801050,BD2GI,AOML,UNKNOWN,North
2017-09-30T00:00:00Z,1506729600,2017,0,0,273.0,273.0,72.173,-127.201,1009.5,-0.45,-999.0,yes,yes,no,300234063801050,BD2GI,AOML,UNKNOWN,North
2017-09-30T01:00:28Z,1506733229,2017,1,0,273.042,273.042,72.1722,-127.204,1010.1,-0.44,-999.0,yes,yes,no,300234063801050,BD2GI,AOML,UNKNOWN,North
2017-09-30T01:59:31Z,1506736771,2017,2,0,273.083,273.083,72.1726,-127.2096,1010.8,-0.41,-999.0,yes,yes,no,300234063801050,BD2GI,AOML,UNKNOWN,North
2017-09-30T03:00:00Z,1506740400,2017,3,0,273.125,273.125,72.1738,-127.2148,1011.5,-0.39,-999.0,yes,yes,no,300234063801050,BD2GI,AOML,UNKNOWN,North
2017-09-30T04:00:28Z,1506744029,2017,4,0,273.167,273.167,72.1766,-127.2172,1011.9,-0.44,-999.0,yes,yes,no,300234063801050,BD2GI,AOML,UNKNOWN,North
2017-09-30T04:59:31Z,1506747571,2017,5,0,273.208,273.208,72.1794,-127.2156,1012.2,-0.39,-999.0,yes,yes,no,300234063801050,BD2GI,AOML,UNKNOWN,North
2017-09-30T06:00:00Z,1506751200,2017,6,0,273.25,273.25,72.1818,-127.212,1012.5,-0.41,-999.0,yes,yes,no,300234063801050,BD2GI,AOML,UNKNOWN,North
2017-09-30T07:00:28Z,1506754829,2017,7,0,273.292,273.292,72.1846,-127.2062,1012.9,-0.43,-999.0,yes,yes,no,300234063801050,BD2GI,AOML,UNKNOWN,North
2017-09-30T07:59:31Z,1506758371,2017,8,0,273.333,273.333,72.1872,-127.1998,1013.1,-0.51,-999.0,yes,yes,no,300234063801050,BD2GI,AOML,UNKNOWN,North
2017-09-30T09:00:00Z,1506762000,2017,9,0,273.375,273.375,72.1896,-127.1936,1013.4,-0.48,-999.0,yes,yes,no,300234063801050,BD2GI,AOML,UNKNOWN,North
2017-09-30T10:00:28Z,1506765629,2017,10,0,273.417,273.417,72.1916,-127.1888,1013.7,-0.46,-999.0,yes,yes,no,300234063801050,BD2GI,AOML,UNKNOWN,North
2017-09-30T10:59:31Z,1506769171,2017,11,0,273.458,273.458,72.1934,-127.1876,1013.8,-0.45,-999.0,yes,yes,no,300234063801050,BD2GI,AOML,UNKNOWN,North
2017-09-30T12:00:00Z,1506772800,2017,12,0,273.5,273.5,72.1958,-127.1918,1013.7,-0.47,-999.0,yes,yes,no,300234063801050,BD2GI,AOML,UNKNOWN,North
2017-09-30T13:00:28Z,1506776429,2017,13,0,273.542,273.542,72.1996,-127.1994,1013.7,-0.44,-999.0,yes,yes,no,300234063801050,BD2GI,AOML,UNKNOWN,North
2017-09-30T13:59:31Z,1506779971,2017,14,0,273.583,273.583,72.2046,-127.2074,1013.8,-0.48,-999.0,yes,yes,no,300234063801050,BD2GI,AOML,UNKNOWN,North